DMSP 5D-2 F13 DEB, 40468

Orbit data source: Space-Track

DMSP 5D-2 F13 DEB, 40468 is space debris in SSO originally from a launch on Fri, 24 Mar 1995 UTC launched from the Air Force Western Test Range (AFWTR). Debris objects in space refer to the collection of defunct objects orbiting the Earth. Examples of debris include non-operational satellites, rocket bodies, and fragments generated from explosions, collisions, or faulty payload assembly.

Loading next visibility...
Identifier
40468, 1995-015BL
Orbit
SSO
Country
Flag of USUS
Related business
Manufacturer
Unknown
Mission
Spacecraft
Bus & Motor
Unknown
Mass
Unknown
Launch date (UTC)
1995-03-24 (31 years ago)
Launch vehicle
Unknown
Launch site
Air Force Western Test Range (AFWTR)
Object type
Payload
Rocket body
Debris
Shape & HBR
Unknown shape, 0.1 m
Radar Cross Section
Small (<0.1 m²)

Expand to show TLE details & history
Last TLE update: 2 days ago

TLE from 2 days ago
0 DMSP 5D-2 F13 DEB
1 40468U 95015BL  26093.55737754  .00009475  00000-0  28587-2 0  9992
2 40468  98.6320 135.8047 0010796 110.3630 249.8720 14.42639163575544
Epoch: 2026-04-03T13:22Z
TLE epoch observation values (Epoch: 2026-04-03T13:22:37.419Z)
Latitude
-0.00002°
Longitude
103.259°
Altitude
755.396 km
Speed
7.475 km/s
True Right ascension
09h 03m 13s
True Declination
0° 00' 00"
Sunlit
Object was in full shadow at epoch
Visualization orbit readout
Latitude
Unknown
Longitude
Unknown
Altitude
Unknown
Speed
Unknown
Apparent Right ascension
Unknown
Apparent Declination
Unknown
Sunlit
N/A
Visualization observer readout
Local Sidereal Time
19:25:09
Azimuth
Unknown
Elevation
Unknown
Doppler factor
Unknown
Orbital elements
Apogee altitude
754.609 km
Perigee altitude
739.224 km
Semi-major axis
7,125.054 km
Eccentricity
0.00108
Inclination
98.632°
RAAN
135.8047°
Arg. of periapsis
110.363°
True anomaly
249.7559°
Mean anomaly
249.872°
Eccentric anomaly
249.81394°
Mean motion
3.60878 °/min
Orbital period
99.76 mins
BSTAR
0.0028587
Loading maneuver chart data...
Computing Atmospheric mass density...

Documentation

Showing up to 5 results
|